Simultaneous Nadir Overpasses (SNOs) Predictions

Prediction of SNOs between GOES-16 and METOP-B Satellite Orbit:

Table of predicted SNOs for the next 14.0 days since TLE Epoch: 3/7/2025
Index Date Time (GOES-16) GOES-16 Lat,Lon METOP-B Lat,Lon Distance(km) Time Diff (sec)
1 03/08/2025 14:07:08 0.03, -75.26 -0.21, -74.31 108.79 80
2 03/10/2025 02:28:52 -0.04, -75.25 -0.83, -78.94 420.41 80
3 03/11/2025 02:05:35 -0.04, -75.26 0.23, -73.96 147.81 80
4 03/12/2025 14:24:31 0.04, -75.32 0.79, -78.56 369.79 80
5 03/13/2025 14:06:35 0.04, -75.34 -0.34, -73.59 199.29 80
6 03/15/2025 02:25:39 -0.04, -75.35 -0.69, -78.22 327.95 80
7 03/16/2025 02:02:22 -0.04, -75.37 0.44, -73.25 241.27 80
8 03/17/2025 14:21:19 0.04, -75.44 0.56, -77.86 275.31 80
9 03/18/2025 14:03:21 0.04, -75.46 -0.51, -72.87 294.36 80
10 03/20/2025 02:22:26 -0.04, -75.47 -0.50, -77.51 232.06 80
11 03/21/2025 01:59:09 -0.03, -75.50 0.63, -72.54 337.45 80
